DLH87Y EDDF-EDDN

Flight info

Callsign DLH87Y
Flight time 0h 36m
Altitude 23000
Route CINDY5L CINDY Z74 HAREM T104 ELMOX DCT LETKU LETKU1V
Aircraft B789/H-SDE1E2E3FGHIJ2J3J4J5M1RWXY/LB1D1

Departure

Time 2026-05-07 12:23
Airport Frankfurt Main Airport (EDDF)

Arrival

Time 2026-05-07 13:00
Airport Nuremberg Airport (EDDN)
Time Latitude Longitude Altitude Speed Heading
2026-05-07 11:49 50.04587 8.56602 370 ft 0 kts 114°
2026-05-07 12:06 50.04589 8.56592 365 ft 3 kts 114°
2026-05-07 12:06 50.04597 8.56566 365 ft 3 kts 114°
2026-05-07 12:06 50.04604 8.56540 370 ft 3 kts 114°
2026-05-07 12:06 50.04614 8.56515 366 ft 3 kts 135°
2026-05-07 12:07 50.04631 8.56497 368 ft 3 kts 156°
2026-05-07 12:07 50.04643 8.56490 367 ft 0 kts 171°
2026-05-07 12:09 50.04640 8.56490 366 ft 1 kts 177°
2026-05-07 12:09 50.04625 8.56486 371 ft 2 kts 192°
2026-05-07 12:09 50.04614 8.56480 368 ft 1 kts 202°
2026-05-07 12:09 50.04606 8.56476 369 ft 2 kts 200°
2026-05-07 12:10 50.04582 8.56461 368 ft 5 kts 202°
2026-05-07 12:10 50.04542 8.56428 366 ft 6 kts 220°
2026-05-07 12:10 50.04519 8.56383 367 ft 5 kts 232°
2026-05-07 12:10 50.04517 8.56377 368 ft 0 kts 241°
2026-05-07 12:11 50.04516 8.56375 368 ft 1 kts 243°
2026-05-07 12:12 50.04510 8.56352 369 ft 4 kts 248°
2026-05-07 12:12 50.04497 8.56304 370 ft 5 kts 248°
2026-05-07 12:12 50.04485 8.56246 370 ft 6 kts 252°
2026-05-07 12:12 50.04470 8.56182 370 ft 7 kts 249°
2026-05-07 12:13 50.04451 8.56108 370 ft 8 kts 249°
2026-05-07 12:13 50.04418 8.56049 368 ft 7 kts 207°
2026-05-07 12:13 50.04380 8.56039 366 ft 4 kts 169°
2026-05-07 12:13 50.04350 8.56054 364 ft 6 kts 161°
2026-05-07 12:14 50.04301 8.56070 361 ft 8 kts 185°
2026-05-07 12:14 50.04265 8.56035 366 ft 4 kts 232°
2026-05-07 12:14 50.04260 8.56018 365 ft 2 kts 246°
2026-05-07 12:14 50.04249 8.55979 368 ft 6 kts 248°
2026-05-07 12:15 50.04229 8.55895 360 ft 10 kts 251°
2026-05-07 12:15 50.04201 8.55776 360 ft 13 kts 250°
2026-05-07 12:15 50.04169 8.55642 365 ft 13 kts 249°
2026-05-07 12:15 50.04136 8.55507 365 ft 13 kts 250°
2026-05-07 12:16 50.04105 8.55376 364 ft 9 kts 249°
2026-05-07 12:16 50.04085 8.55294 367 ft 8 kts 250°
2026-05-07 12:16 50.04067 8.55216 365 ft 8 kts 250°
2026-05-07 12:16 50.04045 8.55124 364 ft 10 kts 250°
2026-05-07 12:17 50.04019 8.55012 363 ft 11 kts 249°
2026-05-07 12:17 50.03989 8.54892 358 ft 13 kts 249°
2026-05-07 12:17 50.03954 8.54748 357 ft 16 kts 250°
2026-05-07 12:17 50.03916 8.54584 355 ft 16 kts 250°
2026-05-07 12:18 50.03875 8.54417 358 ft 17 kts 249°
2026-05-07 12:18 50.03823 8.54283 357 ft 13 kts 236°
2026-05-07 12:18 50.03788 8.54172 359 ft 11 kts 250°
2026-05-07 12:18 50.03760 8.54053 357 ft 13 kts 250°
2026-05-07 12:19 50.03727 8.53914 353 ft 14 kts 250°
2026-05-07 12:19 50.03690 8.53763 356 ft 16 kts 250°
2026-05-07 12:19 50.03648 8.53590 352 ft 17 kts 249°
2026-05-07 12:19 50.03629 8.53516 348 ft 1 kts 249°
2026-05-07 12:20 50.03622 8.53486 349 ft 7 kts 249°
2026-05-07 12:20 50.03604 8.53413 352 ft 8 kts 250°
2026-05-07 12:20 50.03582 8.53323 350 ft 10 kts 250°
2026-05-07 12:20 50.03557 8.53214 348 ft 11 kts 250°
2026-05-07 12:21 50.03531 8.53107 354 ft 10 kts 249°
2026-05-07 12:21 50.03505 8.53002 355 ft 10 kts 249°
2026-05-07 12:21 50.03479 8.52899 355 ft 9 kts 249°
2026-05-07 12:21 50.03459 8.52818 361 ft 7 kts 249°
2026-05-07 12:22 50.03442 8.52753 362 ft 6 kts 248°
2026-05-07 12:22 50.03413 8.52659 363 ft 14 kts 233°
2026-05-07 12:22 50.03283 8.52595 359 ft 33 kts 181°
2026-05-07 12:22 50.02795 8.52599 359 ft 108 kts 180°
2026-05-07 12:23 50.01812 8.52615 363 ft 172 kts 179°
2026-05-07 12:23 50.00530 8.52705 783 ft 196 kts 181°
2026-05-07 12:23 49.99105 8.52804 1353 ft 212 kts 179°
2026-05-07 12:23 49.97567 8.52839 2100 ft 226 kts 180°
2026-05-07 12:24 49.96002 8.52912 2947 ft 229 kts 179°
2026-05-07 12:24 49.94923 8.52990 3560 ft 231 kts 178°
2026-05-07 12:24 49.93311 8.53112 4444 ft 232 kts 179°
2026-05-07 12:24 49.91082 8.53265 5050 ft 255 kts 179°
2026-05-07 12:25 49.89888 8.53345 5046 ft 253 kts 179°
2026-05-07 12:25 49.87576 8.53505 5141 ft 246 kts 179°
2026-05-07 12:25 49.86465 8.53584 5685 ft 232 kts 179°
2026-05-07 12:25 49.84845 8.53692 6506 ft 234 kts 179°
2026-05-07 12:26 49.83211 8.53804 7283 ft 236 kts 179°
2026-05-07 12:26 49.81562 8.53917 8078 ft 239 kts 179°
2026-05-07 12:26 49.79910 8.54278 8742 ft 250 kts 156°
2026-05-07 12:26 49.78570 8.56001 9528 ft 256 kts 125°
2026-05-07 12:27 49.77998 8.58580 10322 ft 257 kts 93°
2026-05-07 12:27 49.77893 8.61359 11050 ft 263 kts 91°
2026-05-07 12:27 49.77829 8.64228 11739 ft 271 kts 91°
2026-05-07 12:27 49.77739 8.67177 12452 ft 278 kts 92°
2026-05-07 12:28 49.77628 8.70200 13175 ft 285 kts 92°
2026-05-07 12:28 49.77516 8.73298 13919 ft 291 kts 92°
2026-05-07 12:28 49.77407 8.76459 14584 ft 298 kts 92°
2026-05-07 12:28 49.77294 8.79694 15264 ft 303 kts 92°
2026-05-07 12:29 49.77176 8.82982 15962 ft 308 kts 92°
2026-05-07 12:29 49.77056 8.86317 16670 ft 313 kts 92°
2026-05-07 12:29 49.76935 8.89690 17389 ft 316 kts 92°
2026-05-07 12:29 49.76811 8.93065 18117 ft 320 kts 92°
2026-05-07 12:30 49.76685 8.96516 18787 ft 322 kts 92°
2026-05-07 12:30 49.76556 8.99986 19435 ft 324 kts 92°
2026-05-07 12:30 49.76426 9.03470 20105 ft 325 kts 92°
2026-05-07 12:30 49.76294 9.06957 20771 ft 325 kts 92°
2026-05-07 12:31 49.76019 9.10412 21463 ft 323 kts 106°
2026-05-07 12:31 49.75413 9.13750 22182 ft 321 kts 102°
2026-05-07 12:31 49.74925 9.17099 22866 ft 319 kts 105°
2026-05-07 12:31 49.73914 9.20184 23040 ft 332 kts 131°
2026-05-07 12:32 49.72345 9.22955 23010 ft 352 kts 132°
2026-05-07 12:32 49.70666 9.25859 23007 ft 372 kts 132°
2026-05-07 12:32 49.68915 9.28944 23031 ft 390 kts 131°
2026-05-07 12:32 49.67111 9.32166 23005 ft 400 kts 131°
2026-05-07 12:33 49.63429 9.38666 23007 ft 403 kts 131°
2026-05-07 12:33 49.61580 9.41915 23002 ft 402 kts 131°
2026-05-07 12:33 49.59759 9.45123 22998 ft 403 kts 131°
2026-05-07 12:34 49.57912 9.48372 22996 ft 403 kts 131°
2026-05-07 12:34 49.56060 9.51621 23002 ft 403 kts 131°
2026-05-07 12:34 49.54207 9.54864 23000 ft 403 kts 131°
2026-05-07 12:34 49.52356 9.58105 22998 ft 403 kts 132°
2026-05-07 12:35 49.50503 9.61346 23005 ft 404 kts 132°
2026-05-07 12:35 49.48641 9.64596 23002 ft 404 kts 132°
2026-05-07 12:35 49.46773 9.67853 22761 ft 407 kts 132°
2026-05-07 12:35 49.44917 9.71086 22422 ft 399 kts 132°
2026-05-07 12:36 49.43098 9.74250 22089 ft 391 kts 132°
2026-05-07 12:36 49.41315 9.77348 21745 ft 383 kts 132°
2026-05-07 12:36 49.39618 9.80368 21345 ft 367 kts 126°
2026-05-07 12:36 49.38489 9.83808 20972 ft 361 kts 105°
2026-05-07 12:37 49.38128 9.87604 20614 ft 357 kts 93°
2026-05-07 12:37 49.37937 9.91383 20224 ft 354 kts 93°
2026-05-07 12:37 49.37765 9.95124 19833 ft 350 kts 93°
2026-05-07 12:37 49.37598 9.98792 19457 ft 348 kts 94°
2026-05-07 12:38 49.37421 10.02486 19080 ft 345 kts 94°
2026-05-07 12:38 49.37241 10.06147 18798 ft 341 kts 94°
2026-05-07 12:38 49.37066 10.09758 18815 ft 343 kts 94°
2026-05-07 12:38 49.36889 10.13418 18889 ft 341 kts 94°
2026-05-07 12:39 49.36711 10.17036 18960 ft 341 kts 94°
2026-05-07 12:39 49.36531 10.20685 19019 ft 344 kts 94°
2026-05-07 12:39 49.36348 10.24355 19065 ft 346 kts 94°
2026-05-07 12:39 49.36164 10.28032 19095 ft 346 kts 94°
2026-05-07 12:40 49.35979 10.31714 19115 ft 346 kts 94°
2026-05-07 12:40 49.35793 10.35376 19142 ft 341 kts 94°
2026-05-07 12:40 49.35610 10.38959 19146 ft 334 kts 94°
2026-05-07 12:40 49.35428 10.42494 19150 ft 332 kts 94°
2026-05-07 12:41 49.35246 10.46025 18967 ft 332 kts 94°
2026-05-07 12:41 49.35072 10.49392 18626 ft 326 kts 94°
2026-05-07 12:41 49.34959 10.52823 18248 ft 318 kts 85°
2026-05-07 12:41 49.35545 10.56014 17824 ft 309 kts 60°
2026-05-07 12:42 49.36822 10.58577 17433 ft 300 kts 43°
2026-05-07 12:42 49.38277 10.60859 17026 ft 298 kts 42°
2026-05-07 12:42 49.39749 10.63098 16639 ft 298 kts 42°
2026-05-07 12:42 49.41204 10.65342 16246 ft 296 kts 43°
2026-05-07 12:43 49.42545 10.67716 15980 ft 296 kts 57°
2026-05-07 12:43 49.43203 10.70707 15718 ft 297 kts 82°
2026-05-07 12:43 49.43086 10.73843 15464 ft 292 kts 97°
2026-05-07 12:43 49.42789 10.76913 15198 ft 291 kts 98°
2026-05-07 12:44 49.42471 10.79981 14873 ft 290 kts 98°
2026-05-07 12:44 49.42175 10.83029 14551 ft 287 kts 97°
2026-05-07 12:44 49.41890 10.86055 14234 ft 286 kts 97°
2026-05-07 12:44 49.41604 10.89038 13928 ft 285 kts 97°
2026-05-07 12:45 49.41311 10.92051 13592 ft 284 kts 97°
2026-05-07 12:45 49.41019 10.95044 13228 ft 282 kts 97°
2026-05-07 12:45 49.40732 10.97986 12818 ft 274 kts 97°
2026-05-07 12:45 49.40453 11.00850 12378 ft 269 kts 98°
2026-05-07 12:46 49.40175 11.03672 11956 ft 267 kts 98°
2026-05-07 12:46 49.39899 11.06484 11519 ft 266 kts 98°
2026-05-07 12:46 49.39625 11.09272 11058 ft 261 kts 98°
2026-05-07 12:46 49.39354 11.12012 10607 ft 258 kts 98°
2026-05-07 12:47 49.39084 11.14727 10160 ft 256 kts 99°
2026-05-07 12:47 49.38818 11.17414 9690 ft 253 kts 99°
2026-05-07 12:47 49.38553 11.20066 9202 ft 250 kts 99°
2026-05-07 12:47 49.38292 11.22684 8720 ft 247 kts 99°
2026-05-07 12:48 49.38032 11.25276 8254 ft 244 kts 99°
2026-05-07 12:48 49.37774 11.27845 7793 ft 242 kts 99°
2026-05-07 12:48 49.37518 11.30389 7339 ft 241 kts 99°
2026-05-07 12:48 49.37264 11.32918 6879 ft 239 kts 99°
2026-05-07 12:49 49.37010 11.35431 6444 ft 237 kts 99°
2026-05-07 12:49 49.36758 11.37916 5981 ft 235 kts 99°
2026-05-07 12:49 49.36507 11.40392 5540 ft 233 kts 99°
2026-05-07 12:49 49.36258 11.42825 5132 ft 230 kts 99°
2026-05-07 12:50 49.36019 11.45186 4988 ft 217 kts 99°
2026-05-07 12:50 49.35786 11.47462 4981 ft 215 kts 99°
2026-05-07 12:50 49.35556 11.49704 4981 ft 209 kts 100°
2026-05-07 12:50 49.35330 11.51910 4981 ft 210 kts 99°
2026-05-07 12:51 49.35104 11.54118 4975 ft 209 kts 100°
2026-05-07 12:51 49.34875 11.56333 4983 ft 212 kts 100°
2026-05-07 12:51 49.34865 11.58568 4920 ft 211 kts 72°
2026-05-07 12:51 49.35683 11.60348 4953 ft 203 kts 36°
2026-05-07 12:52 49.36946 11.61112 4968 ft 194 kts
2026-05-07 12:52 49.38265 11.61420 4993 ft 195 kts
2026-05-07 12:52 49.39615 11.61728 4999 ft 196 kts
2026-05-07 12:52 49.40957 11.62052 5009 ft 195 kts
2026-05-07 12:53 49.42301 11.62355 4995 ft 193 kts 360°
2026-05-07 12:53 49.43537 11.61860 4962 ft 180 kts 326°
2026-05-07 12:53 49.44246 11.60373 4973 ft 174 kts 289°
2026-05-07 12:53 49.44733 11.58648 4998 ft 177 kts 291°
2026-05-07 12:54 49.45000 11.56865 4995 ft 167 kts 279°
2026-05-07 12:54 49.45195 11.55125 4975 ft 163 kts 277°
2026-05-07 12:54 49.45363 11.53399 4973 ft 163 kts 277°
2026-05-07 12:54 49.45534 11.51642 4715 ft 165 kts 278°
2026-05-07 12:55 49.45699 11.49967 4410 ft 154 kts 278°
2026-05-07 12:55 49.45858 11.48354 4129 ft 153 kts 278°
2026-05-07 12:55 49.46018 11.46749 3777 ft 149 kts 277°
2026-05-07 12:55 49.46171 11.45201 3438 ft 146 kts 277°
2026-05-07 12:56 49.46321 11.43676 3206 ft 144 kts 278°
2026-05-07 12:56 49.46474 11.42161 3024 ft 143 kts 280°
2026-05-07 12:56 49.46633 11.40656 2913 ft 144 kts 279°
2026-05-07 12:56 49.46799 11.39156 2930 ft 143 kts 280°
2026-05-07 12:57 49.46985 11.37632 2923 ft 145 kts 279°
2026-05-07 12:57 49.47123 11.36098 2920 ft 144 kts 275°
2026-05-07 12:57 49.47251 11.34550 2937 ft 147 kts 277°
2026-05-07 12:57 49.47393 11.33001 2935 ft 147 kts 278°
2026-05-07 12:58 49.47547 11.31449 2925 ft 145 kts 278°
2026-05-07 12:58 49.47695 11.29931 2932 ft 145 kts 278°
2026-05-07 12:58 49.47847 11.28384 2928 ft 145 kts 278°
2026-05-07 12:58 49.47996 11.26852 2837 ft 144 kts 278°
2026-05-07 12:59 49.48143 11.25374 2703 ft 139 kts 279°
2026-05-07 12:59 49.48287 11.23895 2548 ft 139 kts 279°
2026-05-07 12:59 49.48433 11.22436 2432 ft 142 kts 278°
2026-05-07 12:59 49.48581 11.20923 2252 ft 144 kts 278°
2026-05-07 13:00 49.48722 11.19484 2139 ft 121 kts 278°
2026-05-07 13:00 49.48838 11.18412 1877 ft 0 kts 275°
2026-05-07 13:00 49.49074 11.17315 1092 ft 73 kts 332°
2026-05-07 13:00 49.49273 11.17109 1094 ft 1 kts 327°
2026-05-07 13:01 49.49309 11.17072 1115 ft 0 kts 313°
2026-05-07 13:01 49.49416 11.16895 1101 ft 0 kts 312°